Starlink 6107

operational
NORAD ID: 56117 Int'l Des: 2023-046 Owner: SPXS Country: US Constellation: starlink
LEOCIRCULAR

Über Starlink 6107

Beschreibung wird geladen...

Live-Position

3D-Globus wird geladen...

Nächste Überflüge

Höhenverlauf

Altitude vs Time

uPlot chart will show altitude changes over time

Zweizeiliger Elementsatz

1 56117U 23046AA 25259.61375715 -.00000571 00000-0 -27242-4 0 9999
2 56117 43.0021 12.0902 0000623 209.4597 150.6211 15.02538621136024
Epoch: 16. Sept. 2025 • Age: 7 hours

Aktueller Status

Höhe 561.6 km
Geschwindigkeit 7.59 km/s
Subsatellitenpunkt 39.72°N, 168.03°E
Startdatum 29. März 2023
Alter 2.4 years
Typ internet

Technische Details

Klassifizierung Payload
Masse 305.00 kg
Trockenmasse 290.00 kg
Gesamtmasse 305.00 kg
Länge 0.20 m
Durchmesser 2.80 m
Spannweite 9.00 m
Form Box + pan
Hersteller SPXS
Bus-Typ Starlink
Phasenstatus In Orbit
Besitzer/Staat SPXS/US

Große Konstellationen

Loading constellations...